[[{"header":{"parameterUnit":"m.s-1","parameterCategory":1,"la1":30.2991,"la2":30.254,"lo1":-89.0895,"lo2":-89.0444,"dy":0.0017,"dx":0.0017,"nx":28,"ny":28,"refTime":"2023-03-30T15:00:00:Z","depth":0,"parameterNumber":2,"parameterNumberName":"U-component_of_WINDS"},"data":[0,0,0,0,0,0,0,0,0,0,0,0,0,0,0,0,0,0,0,0,0,0,0,0,0,0,0,0,0,0,0,0,0,0,0,0,0,0,0,0,0,0,0,0,0,0,0,0,0,0,0,0,0,0,0,0,0,0,-1.1704,-1.1704,0,-1.1685,-1.1685,-1.1684,-1.1682,-1.1682,-1.1682,-1.1682,-1.1663,-1.1662,-1.1661,0,0,0,0,0,0,0,0,0,0,0,0,0,-1.1741,-1.174,-1.1705,-1.1704,-1.1704,-1.1685,-1.1685,-1.1684,-1.1682,-1.1682,-1.1682,-1.1682,-1.1663,-1.1662,-1.1661,0,0,0,0,0,0,0,0,0,0,0,0,0,-1.1723,-1.174,-1.1705,-1.17,-1.17,-1.1685,-1.1685,-1.1684,-1.1682,-1.1682,-1.1682,-1.1682,-1.1663,-1.1662,-1.1661,-1.1649,0,0,-1.1658,-1.1658,0,0,0,0,0,0,0,0,-1.1724,-1.1722,-1.1701,-1.1701,-1.17,-1.1686,-1.169,-1.1673,-1.1681,-1.1688,-1.1682,-1.1682,-1.167,-1.1669,-1.1664,-1.1649,-1.1648,-1.1658,-1.1657,-1.1657,-1.1657,0,0,0,0,0,0,0,-1.1726,-1.1723,-1.1697,-1.1701,-1.17,-1.17,-1.1698,-1.1687,-1.1678,-1.1688,-1.1688,-1.1685,-1.167,-1.1665,-1.1664,-1.1647,-1.1658,-1.1657,-1.1656,-1.1656,-1.1622,-1.1621,0,0,0,0,0,0,-1.1727,-1.1724,-1.1697,-1.1696,-1.1713,-1.1699,-1.1696,-1.169,-1.1678,-1.1677,-1.1685,-1.1685,-1.1667,-1.1665,-1.1663,-1.1649,-1.1657,-1.1656,-1.1655,-1.1622,-1.1622,-1.1621,0,0,0,0,0,0,-1.1728,-1.1725,-1.1698,-1.171,-1.1707,-1.1698,-1.1691,-1.169,-1.1685,-1.1676,-1.1675,-1.1682,-1.1667,-1.1665,-1.1653,-1.1648,-1.1655,-1.1654,-1.1622,-1.1622,-1.1621,-1.162,0,0,0,0,0,0,-1.1729,-1.1725,-1.172,-1.171,-1.1706,-1.1688,-1.1691,-1.1689,-1.1683,-1.1683,-1.1673,-1.1671,-1.1667,-1.1655,-1.1652,-1.1647,-1.1654,-1.1623,-1.1622,-1.1622,-1.162,-1.1619,-1.1619,0,0,0,0,0,-1.1731,-1.1721,-1.172,-1.1717,-1.17,-1.1688,-1.1685,-1.1681,-1.1683,-1.1678,-1.1673,-1.1672,-1.1649,-1.1653,-1.165,-1.1645,-1.1623,-1.1622,-1.1622,-1.1621,-1.162,-1.1619,0,0,0,0,0,0,-1.1731,-1.1719,-1.1719,-1.1705,-1.1697,-1.1687,-1.1681,-1.168,-1.1671,-1.1672,-1.1666,-1.1664,-1.1653,-1.1648,-1.1652,-1.1633,-1.1636,-1.1635,-1.1637,-1.1636,-1.1635,-1.1636,-1.1653,0,0,0,0,0,-1.173,-1.1721,-1.1711,-1.17,-1.1696,-1.1689,-1.1684,-1.1681,-1.1673,-1.167,-1.1663,-1.1655,-1.1647,-1.1641,-1.1633,-1.162,-1.1618,-1.1615,-1.1614,-1.1613,-1.1612,-1.1606,-1.1604,-1.1619,-1.1619,-1.1619,0,0,-1.1727,-1.1719,-1.1714,-1.17,-1.1694,-1.1685,-1.1687,-1.1677,-1.167,-1.1668,-1.1657,-1.1652,-1.1643,-1.1631,-1.1625,-1.1626,-1.1608,-1.1613,-1.1612,-1.1611,-1.1605,-1.1603,-1.1602,-1.1619,-1.1619,-1.1619,0,0,-1.1716,-1.171,-1.17,-1.1694,-1.1684,-1.168,-1.1678,-1.1668,-1.1664,-1.1653,-1.1651,-1.1643,-1.1628,-1.1622,-1.1617,-1.1606,-1.1604,-1.1603,-1.1599,-1.1592,-1.1591,-1.159,-1.1586,-1.1584,-1.1602,-1.1602,-1.1602,0,-1.1714,-1.17,-1.1695,-1.1686,-1.168,-1.1678,-1.1668,-1.1662,-1.1651,-1.1647,-1.1649,-1.163,-1.1624,-1.161,-1.1608,-1.1604,-1.1601,-1.1604,-1.1591,-1.159,-1.1589,-1.1585,-1.1584,-1.1602,-1.1602,-1.1602,-1.1602,0,-1.1697,-1.1688,-1.1681,-1.1669,-1.1663,-1.1654,-1.1648,-1.1642,-1.164,-1.1636,-1.1624,-1.1617,-1.1607,-1.1604,-1.1602,-1.159,-1.1592,-1.1592,-1.1595,-1.1588,-1.1584,-1.1582,-1.1602,-1.1602,-1.1602,-1.1602,0,0,-1.1686,-1.1672,-1.167,-1.1665,-1.1655,-1.1647,-1.1638,-1.1628,-1.1623,-1.1616,-1.1608,-1.1596,-1.1597,-1.1591,-1.1589,-1.1583,-1.1574,-1.1585,-1.1584,-1.1583,-1.1561,-1.156,-1.1558,-1.1574,-1.1574,-1.1573,-1.1562,0,-1.1674,-1.1657,-1.1653,-1.1638,-1.163,-1.1628,-1.162,-1.1613,-1.1609,-1.1601,-1.1597,-1.1588,-1.159,-1.1587,-1.1581,-1.1576,-1.157,-1.1577,-1.1567,-1.1566,-1.1568,-1.1556,-1.1555,-1.1544,-1.156,-1.156,-1.156,0,-1.1658,-1.1649,-1.1634,-1.1625,-1.1621,-1.1614,-1.1605,-1.1598,-1.159,-1.1588,-1.1582,-1.158,-1.1571,-1.1575,-1.1562,-1.1567,-1.1563,-1.156,-1.156,-1.1558,-1.1562,-1.1554,-1.1541,-1.1539,-1.1557,-1.1558,-1.1558,0,-1.165,-1.1636,-1.1625,-1.162,-1.161,-1.1605,-1.16,-1.1593,-1.1588,-1.158,-1.1577,-1.1568,-1.1563,-1.1557,-1.1553,-1.1557,-1.1541,-1.1545,-1.1539,-1.1539,-1.1535,-1.1535,-1.1521,-1.1533,-1.1533,-1.1533,-1.1533,0,-1.1637,-1.1628,-1.1621,-1.1614,-1.1604,-1.16,-1.159,-1.1585,-1.1579,-1.1572,-1.157,-1.1563,-1.1559,-1.1552,-1.1549,-1.1539,-1.1537,-1.1535,-1.1534,-1.1534,-1.1534,-1.1531,-1.1531,-1.1533,-1.1533,-1.1533,-1.1533,0,-1.1627,-1.1622,-1.161,-1.1601,-1.1599,-1.1592,-1.1585,-1.1578,-1.1574,-1.1565,-1.1563,-1.1557,-1.1548,-1.1544,-1.1533,-1.1531,-1.152,-1.152,-1.1522,-1.1522,-1.1516,-1.1516,-1.1498,-1.1495,-1.151,-1.151,-1.151,0,-1.1619,-1.1611,-1.1602,-1.1597,-1.1592,-1.1584,-1.1578,-1.1575,-1.1569,-1.156,-1.1555,-1.1546,-1.1539,-1.1525,-1.152,-1.1512,-1.1512,-1.1506,-1.151,-1.1511,-1.1511,-1.1511,-1.1511,-1.1505,-1.1505,-1.1505,-1.1504,0,-1.1604,-1.1603,-1.1594,-1.1586,-1.1579,-1.1572,-1.1565,-1.1561,-1.1556,-1.155,-1.1541,-1.1536,-1.1525,-1.1516,-1.1508,-1.1504,-1.1503,-1.1503,-1.1501,-1.1501,-1.1503,-1.1502,-1.1519,-1.1503,-1.1504,-1.1504,-1.1504,-1.1504,-1.1595,-1.1588,-1.158,-1.1572,-1.1566,-1.156,-1.1553,-1.1549,-1.1541,-1.1532,-1.1531,-1.1521,-1.1515,-1.1503,-1.1499,-1.1492,-1.1493,-1.149,-1.149,-1.1489,-1.1488,-1.1505,-1.149,-1.149,-1.149,-1.149,-1.1491,0,-1.158,-1.1575,-1.1567,-1.1557,-1.1551,-1.1551,-1.1544,-1.1538,-1.1529,-1.1523,-1.1516,-1.1506,-1.1498,-1.1493,-1.1485,-1.148,-1.148,-1.1478,-1.1478,-1.1477,-1.1488,-1.149,-1.1478,-1.1478,-1.1478,-1.1478,-1.1478,-1.1478,-1.1571,-1.156,-1.1557,-1.1544,-1.1539,-1.153,-1.1526,-1.152,-1.1515,-1.1504,-1.1497,-1.1494,-1.1488,-1.1479,-1.1472,-1.1471,-1.1468,-1.1466,-1.1465,-1.1475,-1.1476,-1.1477,-1.1479,-1.1466,-1.1466,-1.1454,-1.1454,-1.1454]},{"header":{"parameterUnit":"m.s-1","parameterCategory":1,"la1":30.2991,"la2":30.254,"lo1":-89.0895,"lo2":-89.0444,"dy":0.0017,"dx":0.0017,"nx":28,"ny":28,"refTime":"2023-03-30T15:00:00:Z","depth":0,"parameterNumber":3,"parameterNumberName":"V-component_of_WINDS"},"data":[0,0,0,0,0,0,0,0,0,0,0,0,0,0,0,0,0,0,0,0,0,0,0,0,0,0,0,0,0,0,0,0,0,0,0,0,0,0,0,0,0,0,0,0,0,0,0,0,0,0,0,0,0,0,0,0,0,0,5.7904,5.7905,0,5.7984,5.7985,5.7986,5.7956,5.7955,5.7953,5.7951,5.8031,5.8035,5.8038,0,0,0,0,0,0,0,0,0,0,0,0,0,5.7727,5.773,5.7904,5.7905,5.7906,5.7984,5.7985,5.7986,5.7957,5.7954,5.7952,5.795,5.803,5.8034,5.8039,0,0,0,0,0,0,0,0,0,0,0,0,0,5.7805,5.7732,5.7904,5.7901,5.7901,5.7983,5.7985,5.7986,5.7957,5.7954,5.7952,5.7949,5.8028,5.8034,5.8039,5.8129,0,0,5.8057,5.8059,0,0,0,0,0,0,0,0,5.7801,5.7812,5.79,5.7901,5.7902,5.7957,5.7952,5.8034,5.7958,5.7936,5.7951,5.7948,5.8009,5.8016,5.8037,5.8132,5.8136,5.8057,5.8061,5.8063,5.8065,0,0,0,0,0,0,0,5.7795,5.7808,5.7935,5.7901,5.7903,5.7896,5.7904,5.7967,5.7986,5.7938,5.7936,5.7946,5.8008,5.8031,5.8038,5.8137,5.8057,5.8062,5.8066,5.8068,5.8315,5.8318,0,0,0,0,0,0,5.779,5.7804,5.7933,5.7938,5.7844,5.7901,5.791,5.7942,5.7986,5.799,5.7948,5.7944,5.8023,5.8032,5.8041,5.8151,5.8063,5.8069,5.8072,5.8312,5.8315,5.8319,0,0,0,0,0,0,5.7786,5.7801,5.793,5.787,5.7886,5.7907,5.7943,5.7945,5.7968,5.7993,5.7997,5.7967,5.8021,5.8033,5.8108,5.8153,5.8071,5.8076,5.8308,5.8313,5.8317,5.8371,0,0,0,0,0,0,5.7781,5.78,5.7834,5.7871,5.7889,5.7995,5.7946,5.7949,5.7978,5.7974,5.8013,5.8016,5.802,5.81,5.8114,5.816,5.8081,5.8304,5.831,5.8316,5.8365,5.8377,5.8387,0,0,0,0,0,5.7775,5.7844,5.7836,5.7851,5.7932,5.7998,5.8008,5.8011,5.7982,5.8016,5.8033,5.8015,5.8146,5.8108,5.8123,5.8172,5.8301,5.8308,5.8315,5.836,5.8374,5.8386,0,0,0,0,0,0,5.7809,5.7849,5.784,5.7923,5.7958,5.7993,5.8036,5.8026,5.8068,5.8062,5.8064,5.8073,5.8151,5.8169,5.8125,5.8263,5.8219,5.823,5.8248,5.8262,5.8273,5.8267,5.8086,0,0,0,0,0,5.7827,5.7878,5.7909,5.798,5.7998,5.8015,5.8043,5.8043,5.8078,5.8093,5.8115,5.815,5.8199,5.8231,5.8278,5.8368,5.8377,5.8409,5.842,5.8428,5.8438,5.849,5.8506,5.8342,5.8342,5.8342,0,0,5.7864,5.7892,5.7923,5.7988,5.8015,5.8068,5.8027,5.8084,5.8124,5.8101,5.8174,5.8192,5.8231,5.8316,5.8354,5.8333,5.8485,5.8437,5.8444,5.8449,5.8499,5.8515,5.8528,5.8347,5.8346,5.8345,0,0,5.7958,5.7983,5.8047,5.8076,5.8117,5.8128,5.8144,5.8182,5.8194,5.8268,5.8253,5.83,5.8384,5.8414,5.844,5.8551,5.8537,5.8566,5.8623,5.8674,5.8687,5.8698,5.874,5.8755,5.8575,5.8575,5.8575,0,5.7998,5.8078,5.8081,5.8141,5.8171,5.8155,5.8221,5.8248,5.8302,5.8324,5.83,5.8408,5.8433,5.8526,5.8553,5.8574,5.8593,5.8561,5.8685,5.8696,5.8707,5.8747,5.8763,5.8578,5.8578,5.8578,5.8577,0,5.8126,5.8182,5.8229,5.8284,5.832,5.8382,5.8396,5.8431,5.8429,5.8443,5.8521,5.8551,5.8605,5.8627,5.8624,5.872,5.8707,5.8684,5.864,5.8726,5.8764,5.8779,5.8583,5.8582,5.8581,5.858,0,0,5.8242,5.8302,5.8319,5.8346,5.8393,5.8437,5.8499,5.8554,5.8586,5.8625,5.8679,5.8753,5.8733,5.8763,5.8764,5.8808,5.8898,5.878,5.8781,5.8803,5.901,5.9028,5.9046,5.8889,5.8892,5.8894,5.9007,0,5.8342,5.8454,5.846,5.8561,5.8615,5.8603,5.8658,5.8693,5.8709,5.8757,5.8774,5.8827,5.8796,5.8815,5.8858,5.8878,5.894,5.887,5.8941,5.8943,5.8933,5.9065,5.9083,5.9189,5.9022,5.9024,5.9026,0,5.8473,5.8519,5.8626,5.867,5.8692,5.8741,5.8794,5.884,5.8881,5.8889,5.8925,5.8921,5.8987,5.8941,5.9034,5.8986,5.9016,5.903,5.9034,5.9042,5.8991,5.9078,5.9222,5.9238,5.9049,5.9047,5.9046,0,5.855,5.8639,5.8715,5.8738,5.879,5.8826,5.8849,5.8887,5.8921,5.8967,5.8989,5.9042,5.9071,5.9113,5.9123,5.9089,5.9217,5.9171,5.9227,5.9227,5.9255,5.9253,5.9407,5.9271,5.9271,5.9271,5.927,0,5.8662,5.8728,5.8751,5.8799,5.8874,5.8882,5.8956,5.8977,5.9012,5.9064,5.9056,5.9105,5.9115,5.9167,5.9175,5.9253,5.9265,5.9275,5.9277,5.9277,5.9276,5.9297,5.929,5.9275,5.9274,5.9273,5.9272,0,5.8761,5.8778,5.8862,5.8905,5.8918,5.8972,5.9009,5.9056,5.9072,5.9138,5.9154,5.9179,5.924,5.9255,5.9326,5.9332,5.9424,5.9418,5.9411,5.9411,5.9467,5.9462,5.9641,5.9666,5.9512,5.9514,5.9515,0,5.8831,5.8883,5.8933,5.8968,5.8994,5.905,5.9085,5.9096,5.9133,5.9187,5.9227,5.9287,5.9336,5.9434,5.9458,5.9514,5.951,5.9569,5.9518,5.9518,5.9514,5.9512,5.9518,5.9579,5.9581,5.9582,5.9583,0,5.8956,5.8963,5.9015,5.9072,5.9115,5.9159,5.9202,5.9231,5.9248,5.9291,5.9354,5.9392,5.9467,5.9528,5.9585,5.9609,5.96,5.9599,5.9616,5.9617,5.9612,5.9618,5.9439,5.9595,5.9594,5.9593,5.9592,5.9592,5.9044,5.9091,5.9135,5.9194,5.9228,5.9269,5.9316,5.934,5.9393,5.9456,5.9459,5.9528,5.9571,5.9647,5.9675,5.973,5.9712,5.9735,5.9741,5.9747,5.9754,5.9602,5.974,5.974,5.974,5.974,5.9739,0,5.917,5.9199,5.9254,5.9315,5.9363,5.9352,5.9399,5.944,5.9501,5.9543,5.9592,5.9667,5.9727,5.9758,5.9817,5.9856,5.9853,5.9871,5.9869,5.9876,5.9765,5.9746,5.9872,5.9872,5.9872,5.9872,5.9872,5.9872,5.9241,5.9321,5.9335,5.9433,5.9461,5.953,5.9559,5.9597,5.9631,5.9715,5.9766,5.9786,5.9824,5.9888,5.9943,5.9951,5.9974,5.9995,6.0,5.9896,5.9883,5.987,5.9852,5.9999,5.9999,6.0107,6.0108,6.0108]}]]